This demonstration page uses our WeatherBlox Daily Observations layout. Learn more.

Left ArrowRight Arrow

Hourly Observations for July 23, 2016

Temp ( °F °C ) Dew Point ( °F °C ) Humidity (%) Winds ( mph kmh ) Pressure ( in mb ) Visibility ( mi km ) Precip ( " mm )
12:53 am 00:53 Clear 81 27.2 70 21.1 69 69 Calm 30.02 1017 10 16 0.00 0.00
1:53 am 01:53 Clear 80 26.7 70 21.1 71 71 S 3 6 30.01 1016 10 16 0.00 0.00
2:53 am 02:53 Clear 78 25.6 70 21.1 76 76 S 3 6 30.00 1016 10 16 0.00 0.00
3:53 am 03:53 Clear 75 23.9 70 21.1 84 84 Calm 29.99 1016 10 16 0.00 0.00
4:53 am 04:53 Clear 77 25 71 21.7 82 82 Calm 29.99 1016 10 16 0.00 0.00
5:53 am 05:53 Clear 73 23 70 21 89 89 Calm 30.00 1016 10 16 0.00 0.00
6:53 am 06:53 Sunny 74 23.3 70 21.1 88 88 Calm 30.00 1016 10 16 0.00 0.00
7:53 am 07:53 Sunny 77 25 72 22.2 85 85 Calm 30.01 1016 10 16 0.00 0.00
8:53 am 08:53 Sunny 82 27.8 72 22.2 72 72 Calm 30.01 1016 10 16 0.00 0.00
9:53 am 09:53 Sunny 84 28.9 72 22.2 67 67 WSW 6 9 30.01 1016 10 16 0.00 0.00
10:53 am 10:53 Sunny 88 31.1 73 22.8 61 61 WSW 7 11 30.02 1017 10 16 0.00 0.00
11:53 am 11:53 Sunny 87 30.6 73 22.8 63 63 S 5 7 30.02 1017 10 16 0.00 0.00
12:53 pm 12:53 Sunny 89 31.7 71 21.7 55 55 S 6 9 30.00 1016 10 16 0.00 0.00
1:53 pm 13:53 Sunny 92 33.3 67 19.4 44 44 VRB 7 11 29.98 1015 10 16 0.00 0.00
2:53 pm 14:53 Mostly Sunny 88 31.1 72 22.2 59 59 NW 7 11 29.98 1015 10 16 0.00 0.00
3:53 pm 15:53 Sunny 90 32.2 64 17.8 42 42 VRB 5 7 29.98 1015 10 16 0.00 0.00
4:53 pm 16:53 Sunny 86 30 73 22.8 65 65 NE 8 13 29.96 1015 10 16 0.00 0.00
5:53 pm 17:53 Mostly Cloudy 82 28 72 22 70 70 NE 9 15 29.97 1015 10 16 0.00 0.00
6:53 pm 18:53 Sunny 84 28.9 68 20 59 59 NE 6 9 29.96 1014 10 16 0.00 0.00
7:53 pm 19:53 Sunny 83 28.3 68 20 61 61 NNE 3 6 29.98 1015 10 16 0.00 0.00
8:53 pm 20:53 Clear 81 27.2 70 21.1 69 69 NNE 3 6 29.98 1015 10 16 0.00 0.00
9:53 pm 21:53 Clear 80 26.7 71 21.7 74 74 Calm 29.97 1015 10 16 0.00 0.00
10:53 pm 22:53 Clear 80 26.7 72 22.2 76 76 Calm 29.99 1016 10 16 0.00 0.00
11:53 pm 23:53 Partly Cloudy 77 25 72 22.2 85 85 Calm 30.01 1016 10 16 0.00 0.00

Powered by AerisWeather